Weather History for KNID - August, 2013

Change the Weather History Date:

Saturday, August 3, 2013

  Actual Average Record
Temperature  
Mean Temperature 82 °F -  
Max Temperature 105 °F 100 °F 109 °F (1980)
Min Temperature 63 °F 71 °F 63 °F (2010)
Cooling Degree Days 18    
Growing Degree Days 32 (Base 50)    
Moisture  
Dew Point 26 °F    
Average Humidity 13    
Maximum Humidity 24    
Minimum Humidity 5    
Precipitation  
Precipitation 0.00 in - - ()
Sea Level Pressure  
Sea Level Pressure 29.84 in    
Wind  
Wind Speed 7 mph (South)    
Max Wind Speed 17 mph    
Max Gust Speed 18 mph    
Visibility 10 miles    
Events      
Averages and records for this station are not official NWS values.
T = Trace of Precipitation, MM = Missing Value Source: NWS Daily Summary

Daily Weather History Graph

Daily Weather History Graph

Search for Another Location

Airport or City:

Trip Planner

Search our weather history database for the weather conditions in past years. The results will help you decide how hot, cold, wet, or windy it might be!

Date:

Astronomy

Aug. 03, 2013 Rise Set
Actual Time 6:00 AM PDT 7:52 PM PDT
Civil Twilight 5:32 AM PDT 8:20 PM PDT
Nautical Twilight 4:58 AM PDT 8:54 PM PDT
Astronomical Twilight 4:22 AM PDT 9:30 PM PDT
Moon 3:15 AM PDT (8/3) 5:37 PM PDT (8/3)
Length of Visible Light 14h 47m
Length of Day
13h 52m
Waning Crescent, 9% of the Moon is Illuminated
Aug 3
Waning Crescent
Aug 6
New
Aug 14
First Quarter
Aug 20
Full
Aug 28
Last Quarter

Hourly Weather History & Observations

Time (PDT) Temp. Dew Point Humidity Pressure Visibility Wind Dir Wind Speed Gust Speed Precip Events Conditions
12:56 AM 78.1 °F 27.0 °F 15% 29.81 in 10.0 mi SSW 12.7 mph - N/A   Clear
1:56 AM 73.9 °F 27.0 °F 18% 29.82 in 10.0 mi WSW 3.5 mph - N/A   Clear
2:56 AM 72.0 °F 28.0 °F 20% 29.82 in 10.0 mi South 8.1 mph - N/A   Clear
3:56 AM 70.0 °F 28.9 °F 22% 29.82 in 10.0 mi SSW 8.1 mph - N/A   Clear
4:56 AM 64.9 °F 26.1 °F 23% 29.84 in 10.0 mi Calm Calm - N/A   Clear
5:56 AM 63.0 °F 25.0 °F 24% 29.86 in 10.0 mi Calm Calm - N/A   Clear
6:56 AM 68.0 °F 27.0 °F 21% 29.88 in 10.0 mi South 4.6 mph - N/A   Clear
7:56 AM 72.0 °F 28.0 °F 20% 29.90 in 10.0 mi WSW 3.5 mph - N/A   Clear
8:56 AM 78.1 °F 28.0 °F 16% 29.90 in 10.0 mi SSE 4.6 mph - N/A   Clear
9:56 AM 82.9 °F 28.0 °F 14% 29.90 in 10.0 mi Calm Calm - N/A   Clear
10:56 AM 89.1 °F 28.0 °F 11% 29.91 in 10.0 mi Variable 3.5 mph - N/A   Clear
11:56 AM 93.0 °F 28.0 °F 10% 29.89 in 10.0 mi Calm Calm - N/A   Clear
12:56 PM 96.1 °F 26.1 °F 8% 29.88 in 10.0 mi East 6.9 mph - N/A   Clear
1:56 PM 99.0 °F 28.0 °F 8% 29.86 in 10.0 mi Variable 3.5 mph - N/A   Clear
2:56 PM 102.0 °F 25.0 °F 7% 29.83 in 10.0 mi SE 6.9 mph - N/A   Clear
3:56 PM 102.0 °F 19.9 °F 5% 29.81 in 10.0 mi Variable 3.5 mph - N/A   Clear
4:56 PM 102.9 °F 19.0 °F 5% 29.80 in 10.0 mi South 8.1 mph - N/A   Clear
5:56 PM 102.0 °F 18.0 °F 5% 29.79 in 10.0 mi South 10.4 mph 18.4 mph N/A   Clear
6:56 PM 100.0 °F 18.0 °F 5% 29.78 in 10.0 mi SSE 12.7 mph - N/A   Clear
7:56 PM 93.9 °F 32.0 °F 11% 29.80 in 10.0 mi South 17.3 mph - N/A   Clear
8:56 PM 91.0 °F 26.1 °F 10% 29.82 in 10.0 mi South 10.4 mph - N/A   Clear
9:56 PM 87.1 °F 26.1 °F 11% 29.83 in 10.0 mi SSW 12.7 mph - N/A   Clear
10:56 PM 86.0 °F 27.0 °F 12% 29.84 in 10.0 mi SSW 12.7 mph - N/A   Clear
11:56 PM 81.0 °F 28.0 °F 14% 29.85 in 10.0 mi South 10.4 mph - N/A   Clear